Bingham Lake, MN

4:52 AM CDT on August 24, 2016 (GMT -0500)
Windom Municipal

Weather History for KMWM - June, 2013

Change the Weather History Date:

Monday, June 17, 2013

  Actual Average Record
Temperature  
Mean Temperature 70 °F -  
Max Temperature 82 °F 78 °F 97 °F (1959)
Min Temperature 59 °F 56 °F 41 °F (1999)
Cooling Degree Days 6    
Growing Degree Days 20 (Base 50)    
Moisture  
Dew Point 52 °F    
Average Humidity 52    
Maximum Humidity 88    
Minimum Humidity 28    
Precipitation  
Precipitation 0.00 in - - ()
Sea Level Pressure  
Sea Level Pressure 29.98 in    
Wind  
Wind Speed 8 mph (WNW)    
Max Wind Speed 23 mph    
Max Gust Speed 29 mph    
Visibility 10 miles    
Events      
Averages and records for this station are not official NWS values.
T = Trace of Precipitation, MM = Missing Value Source: NWS Daily Summary

Daily Weather History Graph

Daily Weather History Graph

Search for Another Location

Airport or City:

Trip Planner

Search our weather history database for the weather conditions in past years. The results will help you decide how hot, cold, wet, or windy it might be!

Date:

Astronomy

Jun. 17, 2013 Rise Set
Actual Time 5:37 AM CDT 9:05 PM CDT
Civil Twilight 5:01 AM CDT 9:41 PM CDT
Nautical Twilight 4:13 AM CDT 10:29 PM CDT
Astronomical Twilight 3:13 AM CDT 11:30 PM CDT
Moon 2:35 PM CDT (6/17) 1:25 AM CDT (6/17)
Length of Visible Light 16h 40m
Length of Day
15h 28m
First Quarter, 60% of the Moon is Illuminated
Jun 17
First Quarter
Jun 23
Full
Jun 29
Last Quarter
Jul 8
New
Jul 15
First Quarter

Hourly Weather History & Observations

Time (CDT) Temp. Dew Point Humidity Pressure Visibility Wind Dir Wind Speed Gust Speed Precip Events Conditions
12:13 AM 69.8 °F 51.8 °F 53% 29.96 in 10.0 mi SW 9.2 mph - N/A   Clear
12:32 AM 68.0 °F 51.8 °F 56% 29.95 in 10.0 mi WSW 5.8 mph - N/A   Clear
12:52 AM 64.4 °F 53.6 °F 68% 29.95 in 10.0 mi WSW 3.5 mph - N/A   Clear
1:13 AM 66.2 °F 53.6 °F 64% 29.96 in 10.0 mi WSW 6.9 mph - N/A   Clear
1:32 AM 66.2 °F 53.6 °F 64% 29.96 in 10.0 mi WSW 9.2 mph - N/A   Clear
1:52 AM 64.4 °F 55.4 °F 73% 29.97 in 10.0 mi WSW 8.1 mph - N/A   Clear
2:13 AM 64.4 °F 55.4 °F 73% 29.97 in 10.0 mi WSW 8.1 mph - N/A   Clear
2:32 AM 64.4 °F 55.4 °F 73% 29.96 in 10.0 mi WSW 6.9 mph - N/A   Clear
2:52 AM 64.4 °F 55.4 °F 73% 29.96 in 10.0 mi WSW 6.9 mph - N/A   Clear
3:13 AM 64.4 °F 55.4 °F 73% 29.96 in 10.0 mi West 8.1 mph - N/A   Clear
3:32 AM 62.6 °F 55.4 °F 77% 29.95 in 10.0 mi West 6.9 mph - N/A   Clear
3:52 AM 62.6 °F 55.4 °F 77% 29.95 in 10.0 mi West 6.9 mph - N/A   Clear
4:13 AM 60.8 °F 55.4 °F 82% 29.95 in 10.0 mi West 6.9 mph - N/A   Clear
4:32 AM 60.8 °F 55.4 °F 82% 29.95 in 10.0 mi West 6.9 mph - N/A   Clear
4:53 AM 60.8 °F 53.6 °F 77% 29.94 in 10.0 mi West 4.6 mph - N/A   Clear
5:13 AM 59.0 °F 53.6 °F 82% 29.94 in 10.0 mi West 3.5 mph - N/A   Clear
5:32 AM 59.0 °F 53.6 °F 82% 29.94 in 10.0 mi West 5.8 mph - N/A   Clear
5:53 AM 59.0 °F 53.6 °F 82% 29.96 in 10.0 mi West 4.6 mph - N/A   Clear
6:13 AM 59.0 °F 55.4 °F 88% 29.96 in 10.0 mi Calm Calm - N/A   Clear
6:32 AM 60.8 °F 55.4 °F 82% 29.97 in 10.0 mi West 4.6 mph - N/A   Clear
6:52 AM 62.6 °F 55.4 °F 77% 29.97 in 7.0 mi WNW 3.5 mph - N/A   Clear
7:13 AM 64.4 °F 55.4 °F 73% 29.98 in 10.0 mi WNW 3.5 mph - N/A   Clear
7:32 AM 68.0 °F 53.6 °F 60% 29.99 in 10.0 mi West 3.5 mph - N/A   Clear
7:52 AM 69.8 °F 53.6 °F 56% 29.99 in 10.0 mi NW 5.8 mph - N/A   Clear
8:13 AM 71.6 °F 53.6 °F 53% 29.99 in 10.0 mi WNW 5.8 mph - N/A   Clear
8:32 AM 71.6 °F 53.6 °F 53% 29.99 in 10.0 mi WNW 4.6 mph - N/A   Clear
8:52 AM 73.4 °F 53.6 °F 50% 29.99 in 10.0 mi Calm Calm - N/A   Clear
9:13 AM 75.2 °F 53.6 °F 47% 29.99 in 10.0 mi Calm Calm - N/A   Clear
9:32 AM 75.2 °F 53.6 °F 47% 30.00 in 10.0 mi West 5.8 mph - N/A   Clear
9:52 AM 75.2 °F 53.6 °F 47% 30.00 in 10.0 mi WNW 8.1 mph - N/A   Clear
10:13 AM 75.2 °F 51.8 °F 44% 30.01 in 10.0 mi WNW 4.6 mph - N/A   Clear
10:32 AM 75.2 °F 51.8 °F 44% 30.01 in 10.0 mi WNW 4.6 mph - N/A   Clear
10:52 AM 77.0 °F 48.2 °F 36% 30.01 in 10.0 mi West 6.9 mph - N/A   Clear
11:12 AM 77.0 °F 51.8 °F 41% 30.00 in 10.0 mi NNW 4.6 mph - N/A   Clear
11:32 AM 78.8 °F 51.8 °F 39% 30.01 in 10.0 mi West 8.1 mph - N/A   Clear
11:52 AM 78.8 °F 50.0 °F 36% 30.00 in 10.0 mi West 9.2 mph - N/A   Clear
12:12 PM 78.8 °F 50.0 °F 36% 30.00 in 10.0 mi WSW 19.6 mph 26.5 mph N/A   Clear
12:33 PM 78.8 °F 48.2 °F 34% 30.00 in 10.0 mi West 15.0 mph 20.7 mph N/A   Clear
12:52 PM 80.6 °F 48.2 °F 32% 29.99 in 10.0 mi West 12.7 mph 24.2 mph N/A   Clear
1:12 PM 80.6 °F 46.4 °F 30% 30.00 in 10.0 mi WNW 8.1 mph 23.0 mph N/A   Clear
1:33 PM 80.6 °F 46.4 °F 30% 29.99 in 10.0 mi WNW 12.7 mph 21.9 mph N/A   Clear
1:52 PM 80.6 °F 46.4 °F 30% 29.99 in 10.0 mi WNW 17.3 mph 24.2 mph N/A   Clear
2:12 PM 80.6 °F 46.4 °F 30% 29.99 in 10.0 mi WNW 13.8 mph 25.3 mph N/A   Clear
2:33 PM 82.4 °F 46.4 °F 28% 29.98 in 10.0 mi West 12.7 mph 24.2 mph N/A   Scattered Clouds
2:52 PM 80.6 °F 46.4 °F 30% 29.98 in 10.0 mi WNW 21.9 mph 27.6 mph N/A   Scattered Clouds
3:12 PM 82.4 °F 48.2 °F 30% 29.98 in 10.0 mi NW 11.5 mph 24.2 mph N/A   Clear
3:33 PM 80.6 °F 46.4 °F 30% 29.98 in 10.0 mi WNW 13.8 mph 27.6 mph N/A   Scattered Clouds
3:52 PM 80.6 °F 46.4 °F 30% 29.97 in 10.0 mi NW 18.4 mph 27.6 mph N/A   Scattered Clouds
4:12 PM 80.6 °F 44.6 °F 28% 29.98 in 10.0 mi WNW 23.0 mph 28.8 mph N/A   Clear
4:33 PM 78.8 °F 48.2 °F 34% 29.98 in 10.0 mi NW 20.7 mph 25.3 mph N/A   Clear
4:52 PM 78.8 °F 50.0 °F 36% 29.97 in 10.0 mi WNW 13.8 mph 25.3 mph N/A   Clear
5:12 PM 78.8 °F 51.8 °F 39% 29.97 in 10.0 mi NW 10.4 mph 25.3 mph N/A   Clear
5:33 PM 78.8 °F 48.2 °F 34% 29.97 in 10.0 mi NNW 13.8 mph - N/A   Clear
5:52 PM 78.8 °F 50.0 °F 36% 29.97 in 10.0 mi WNW 12.7 mph 21.9 mph N/A   Clear
6:12 PM 78.8 °F 51.8 °F 39% 29.97 in 10.0 mi NW 10.4 mph 16.1 mph N/A   Clear
6:33 PM 78.8 °F 51.8 °F 39% 29.97 in 10.0 mi NNW 17.3 mph 20.7 mph N/A   Scattered Clouds
6:52 PM 78.8 °F 51.8 °F 39% 29.96 in 10.0 mi WNW 15.0 mph 20.7 mph N/A   Scattered Clouds
7:12 PM 77.0 °F 51.8 °F 41% 29.96 in 10.0 mi WNW 12.7 mph - N/A   Scattered Clouds
7:33 PM 77.0 °F 51.8 °F 41% 29.96 in 10.0 mi NNW 15.0 mph 18.4 mph N/A   Clear
7:52 PM 75.2 °F 51.8 °F 44% 29.96 in 10.0 mi NNW 11.5 mph - N/A   Clear
8:12 PM 75.2 °F 50.0 °F 41% 29.96 in 10.0 mi NNW 10.4 mph - N/A   Clear
8:33 PM 75.2 °F 50.0 °F 41% 29.96 in 10.0 mi NW 10.4 mph 16.1 mph N/A   Clear
8:52 PM 73.4 °F 51.8 °F 47% 29.97 in 10.0 mi NW 9.2 mph - N/A   Clear
9:12 PM 71.6 °F 51.8 °F 50% 29.98 in 10.0 mi NW 4.6 mph - N/A   Clear
9:33 PM 68.0 °F 53.6 °F 60% 29.98 in 10.0 mi NW 5.8 mph - N/A   Clear
9:53 PM 69.8 °F 51.8 °F 53% 29.99 in 10.0 mi NW 5.8 mph - N/A   Clear
10:12 PM 68.0 °F 53.6 °F 60% 30.00 in 10.0 mi NW 5.8 mph - N/A   Clear
10:33 PM 68.0 °F 53.6 °F 60% 30.01 in 10.0 mi NW 5.8 mph - N/A   Scattered Clouds
10:53 PM 68.0 °F 53.6 °F 60% 30.01 in 10.0 mi WNW 3.5 mph - N/A   Scattered Clouds
11:12 PM 66.2 °F 53.6 °F 64% 30.01 in 10.0 mi NW 4.6 mph - N/A   Clear
11:33 PM 64.4 °F 53.6 °F 68% 30.01 in 10.0 mi WNW 5.8 mph - N/A   Scattered Clouds
11:52 PM 66.2 °F 53.6 °F 64% 30.02 in 10.0 mi Calm Calm - N/A   Scattered Clouds